Regional Weather Roundup
Issued by NWS

Home | Current Version | Previous Version | Graphics & Text | Print | Product List | Glossary On
Versions: 1 2 3 4 5 6 7 8 9 10 11 12 13 14 15 16 17 18 19 20 21 22 23 24 25 26 27 28 29 30 31 32 33 34 35 36 37 38 39 40 41 42 43 44 45 46 47 48 49 50
000
ASUS43 KDTX 010101
RWRMI
MICHIGAN HOURLY REGIONAL WEATHER ROUNDUP
NATIONAL WEATHER SERVICE DETROIT/PONTIAC MI
900 PM EDT FRI OCT 31 2014

NOTE: "FAIR" INDICATES FEW OR NO CLOUDS BELOW 12,000 FEET WITH NO
SIGNIFICANT WEATHER AND/OR OBSTRUCTION TO VISIBILITY.

MIZ047>049-052>055-059>063-066>070-074>076-081>083-010200-
SOUTHEAST LOWER MICHIGAN

CITY           SKY/WX    TMP DP  RH WIND       PRES   REMARKS
ADRIAN         CLOUDY    34  30  85 N28G36    30.07R WCI  21
ALMA           CLOUDY    34  24  66 N16G31    30.23R WCI  23
ANN ARBOR      FLURRIES  35  30  82 N21G29    30.07R WCI  24
BAD AXE        CLOUDY    35  33  90 N18G31    30.15R WCI  24
CARO           FLURRIES  34  32  94 N15G24    30.15R WCI  24
DETROIT CITY   LGT RAIN  38  33  82 N21G33    30.03R WCI  28
DETROIT        FLURRIES  36  32  85 N20G26    30.04R WCI  25
FLINT          LGT SNOW  34  31  88 N18       30.15R VSB 1   WCI  23
GROSSE ILE     LGT RAIN  36  34  93 N21G28    30.01R WCI  24
HILLSDALE      CLOUDY    34  29  82 N17G25    30.09R WCI  23
HOWELL         CLOUDY    32  31  97 N13G23    30.11R WCI  22

CITY           SKY/WX    TMP DP  RH WIND       PRES   REMARKS
JACKSON        CLOUDY    33  27  78 N15G35    30.12R WCI  23
LAMBERTVILLE   RAIN      36  32  87 N12G23    30.04R WCI  27
LANSING        CLOUDY    33  25  72 N18G30    30.19R WCI  22
LAPEER         LGT RAIN  34  32  93 N15G25    30.11R WCI  24
MASON          CLOUDY    33  28  82 N17G29    30.15R WCI  21
MONROE         LGT RAIN  36  34  93 N21G29    30.02R WCI  24
MT. CLEMENS    LGT RAIN  36  36 100 N23G33    30.01R WCI  24
PONTIAC        LGT SNOW  34  30  85 N25G33    30.06R WCI  21
PORT HOPE        N/A     39  34  82 N28G43    30.14R WCI  28
PORT HURON     FLURRIES  37  36  93 N23G36    30.03R WCI  26
TRI CITIES     CLOUDY    35  25  66 N21G37    30.20S WCI  24
TROY           MIX PCPN  37  33  86 N18G36    30.06R WCI  26
SAGINAW HB     CLOUDY    34  34 100 N24G38    30.17R WCI  21
$$
MIZ043>046-050>051-056>058-064>065-071>073-077>080-010200-
SOUTHWEST LOWER MICHIGAN

CITY           SKY/WX    TMP DP  RH WIND       PRES   REMARKS
BATTLE CREEK   CLOUDY    34  25  69 N21G31    30.18R WCI  22
BENTON HARBOR  MOCLDY    34  23  64 NE13G21   30.25R WCI  25
BIG RAPIDS     CLOUDY    32  24  73 N15G28    30.28R WCI  22
COLDWATER      CLOUDY    35  28  75 N16G29    30.14R WCI  25
FREMONT        CLOUDY    33  26  74 N9G17     30.29R WCI  25
HOLLAND        CLOUDY    36  23  59 N16G29    30.28R WCI  26
GRAND RAPIDS   CLOUDY    34  24  67 N18G26    30.25R WCI  23
IONIA          CLOUDY    34  25  69 N25G35    30.21R WCI  21
KALAMAZOO      CLOUDY    34  25  69 N21G32    30.20R WCI  22
LUDINGTON      CLOUDY    34  21  58 N16G24    30.32S WCI  24
MARSHALL       CLOUDY    33  25  72 N14G24    30.15R WCI  23
MOUNT PLEASANT CLOUDY    33  23  67 N18G26    30.25R WCI  22
MUSKEGON       CLOUDY    36  23  59 N12       30.31R WCI  28
SOUTH HAVEN    CLOUDY    36  25  65 N18G26    30.26R WCI  25
$$
MIZ016>042-010200-
NORTHERN LOWER MICHIGAN

CITY           SKY/WX    TMP DP  RH WIND       PRES   REMARKS
ALPENA         CLOUDY    32  23  69 N20G28    30.29R WCI  20
BEAVER ISLAND  CLOUDY    34  20  57 N9G23     30.38R WCI  26
BELLAIRE       CLOUDY    33  19  57 N15G21    30.35R WCI  23
CADILLAC       CLOUDY    29  21  73 N13G21    30.27R WCI  19
CHARLEVOIX     CLOUDY    33  22  63 NE12G22   30.38R WCI  24
FRANKFORT      CLOUDY    35  23  61 N15G24    30.35R WCI  25
GAYLORD        CLOUDY    28  20  71 NE8       30.30R WCI  20
GRAYLING       CLOUDY    31  20  63 N16G30    30.30R WCI  20
HARBOR SPRINGS CLOUDY    31  20  64 N10       30.36R WCI  22
HOUGHTON LAKE  CLOUDY    31  19  61 N17G33    30.27R WCI  19
OSCODA         FLURRIES  33  28  83 N23G31    30.22R WCI  20
PELLSTON       CLOUDY    31  19  61 N16       30.37R WCI  20
ROGERS CITY    CLOUDY    32  23  69 N17G24    30.34R WCI  21
TRAVERSE CITY  FLURRIES  37  22  54 N20G35    30.32R WCI  27
$$
MIZ007>008-015-010200-
EASTERN UPPER MICHIGAN

CITY           SKY/WX    TMP DP  RH WIND       PRES   REMARKS
KINROSS        CLOUDY    28  19  69 N17G23    30.37S WCI  16
MACKINAC ISLAN CLOUDY    31  18  58 N16G28    30.37R WCI  20
NEWBERRY       CLOUDY    31  20  62 N14       30.38S WCI  21
S. S. MARIE    CLOUDY    30  14  51 N15G23    30.39R WCI  19
MUNISING         N/A     38  24  57 N22       30.42R WCI  27
$$
MIZ004>006-011>014-085-010200-
CENTRAL UPPER MICHIGAN

CITY           SKY/WX    TMP DP  RH WIND       PRES   REMARKS
MANISTIQUE     CLOUDY    32  19  58 N10       30.39S WCI  24
ESCANABA       CLOUDY    34  21  60 N8        30.42S WCI  27
MENOMINEE      CLOUDY    34  19  55 N9        30.43R WCI  26
SAWYER-GWINN   LGT SNOW  30  27  86 N14G25    30.40S WCI  20
$$
MIZ001>003-009>011-084-010200-
WESTERN UPPER MICHIGAN

CITY           SKY/WX    TMP DP  RH WIND       PRES   REMARKS
IRON MOUNTAIN  CLOUDY    32  19  58 N13       30.42S WCI  22
HOUGHTON       PTCLDY    29  20  69 N6        30.45S WCI  23
COPPER HARBOR    N/A     35  24  64 NE15G23   30.46F WCI  25
IRONWOOD       CLEAR     21  19  93 CALM      30.45F
$$

ABBREVIATIONS USED IN REMARKS
   TC - TEMPERATURE IN CELSIUS
  WCI - WIND CHILL INDEX
   HX - HEAT INDEX
  VSB - VISIBILITY




USA.gov is the U.S. government's official web portal to all federal, state and local government web resources and services.